{"data":{"norad_id":56518,"intl_designator":"2023-065R","name":"STARLINK-5346","alt_names":[],"object_type":"PAYLOAD","status":"ACTIVE","operator":null,"country":"US","launch_date":"2023-05-14","launch_site_code":"AFETR","launch_vehicle":null,"mission":null,"orbit_class":"UNKNOWN","rcs_meters":null,"size_class":null,"mass_kg":null,"dimensions":null,"purposes":["comms"],"wikipedia_slug":null,"has_3d_model":false,"image_url":null,"decayed_at":null,"tle_current":{"epoch":"2026-09-20T04:11:10.364928Z","epoch_age_seconds":142931,"freshness":"FRESH","line1":"1 56518U 23065R   26263.17442552 -.00000205  00000+0  20826-5 0  9990","line2":"2 56518  43.0009 194.1304 0000718 262.3064  97.7706 15.27574217186343","mean_motion":15.27574217,"eccentricity":7.18e-5,"inclination_deg":43.0009,"raan_deg":194.1304,"arg_perigee_deg":262.3064,"mean_anomaly_deg":97.7706,"bstar":2.0826e-6,"rev_number":18634,"period_min":94.267105583126,"perigee_km":482.57377807169,"apogee_km":483.55904688172,"semimajor_km":6861.2034124767,"source":"CELESTRAK","updated_at":"2026-09-21T09:00:33.472026Z"}}}